Location: Tucson
(32.2217°N, 110.9265°W)
Time: 16:54:37
(UTC-07:00)

Tiangong 2 - Visible Passes

Search period start: 18 January 2019 00:00
Search period end: 28 January 2019 00:00
Orbit: 380 x 392 km, 42.8° (Epoch: 18 January)

Date Brightness Start Highest point End Pass type
(mag) Time Alt. Az. Time Alt. Az. Time Alt. Az.
18 Jan 2.9 05:54:10 21° N 05:54:10 21° N 05:55:57 10° NE visible
19 Jan 3.3 06:30:22 12° NNW 06:31:29 14° N 06:33:17 10° NNE visible
20 Jan 4.0 05:34:13 11° NNE 05:34:13 11° NNE 05:34:27 10° NNE visible
21 Jan 3.5 06:10:14 12° N 06:10:33 12° N 06:12:00 10° NNE visible
22 Jan 3.5 06:47:05 10° NNW 06:48:54 14° N 06:50:44 10° NE visible
23 Jan 3.7 05:49:56 12° N 05:49:56 12° N 05:51:04 10° NNE visible
24 Jan 3.2 06:25:53 11° NNW 06:27:53 18° NNE 06:30:11 10° ENE visible
25 Jan 3.9 05:29:36 13° NNE 05:29:36 13° NNE 05:30:25 10° NE visible
26 Jan 2.8 06:05:36 20° NNW 06:06:46 25° NNE 06:09:30 10° E visible
27 Jan 4.3 05:09:22 12° NE 05:09:22 12° NE 05:09:50 10° ENE visible
27 Jan 1.1 06:41:38 11° WNW 06:44:38 84° NNE 06:47:49 10° ESE visible
